Weather in Khaldy

Russia / Udmurt Republic     57°12′12″N   51°54′26″E
temp.,
°C
wind,
m/s
gust,
m/s
humid.,
%
clouds,
%
prec.,
mm/h
press.,
hPa
HPBL,
m
17 april, sat
sat1701:00+1ne310842 0.0 1029199
04:00−1ne28865 0.0 1030151
07:00+1ne37775 0.0 1030211
10:00+7ne35545 0.0 1030760
13:00+9nne34475 0.0 10281193
16:00+10n34465 0.0 10271328
19:00+7nnw22665 0.0 102611
22:00+4nnw22781 0.0 102622
18 april, sun
sun1801:00+3nnw22815 0.0 102619
04:00+2n22875 0.0 102626
07:00+3n27850 0.0 1026198
10:00+7ne4669100 0.0 10271139
13:00+6ne466096 0.0 10281370
16:00+7ene56375 0.0 10291670
19:00+4ene494935 0.0 1030487
22:00+1ene513586 0.0 1031534
19 april, mon
mon1901:000ene411684 0.0 1033396
04:00−1ene310690 0.0 1034347
07:000ene410550 0.0 1035538
10:00+4e68330 0.0 10361540
13:00+6e57300 0.0 10351731
16:00+6e56300 0.0 10351685
19:00+3e38420 0.0 1035255
22:000e28540 0.0 1036155
20 april, tue
tue2001:00−1e27550 0.0 1037144
04:00−1e26540 0.0 1037139
07:00+1ese37440 0.0 1037255
10:00+5se34270 0.0 1036998
13:00+8se34250 0.0 10351331
16:00+9se34260 0.0 10331271
19:00+5ese24450 0.0 103262
22:00+2se35550 0.0 103378
21 april, wed
wed2101:000se265896 0.0 103394
04:000se375926 0.0 1033122
07:00+2se3105014 0.0 1032321
10:00+8sse5933100 0.0 1031922
13:00+11sse692995 0.0 10291200
16:00+12sse592952 0.0 10291386
19:00+9sse41140100 0.0 1029397
22:00+7sse41348100 0.0 1029349